CZ-6A DEB

Satellite information

Favourite Embed

Satellite Type and Status

DEBRISIN ORBIT

Key statistics

Satellite CZ-6A DEB at a glance.

Uptime

1027

Days in orbit

Revolutions

≈ 14.7

Per day

Orbit

SSO

Sun Synchronous Orbit

Inclination

98.7

Latest

Satellite identification and parameters

Extended collection of information and parameters for CZ-6A DEB.

Object identification

Identified? True

Debris? True

Object name: CZ-6A DEB

International designator: 2022-151ADL

Object number (NORAD): 56588

Object ID (CCSDS): 56588

Country: PEOPLES REPUBLIC OF CHINA (PRC)

Current information (Y/N): Y

RCS size: SMALL

Orbital parameters

Period: 98.061 minutes

Inclination: 98.6524 deg

SMA: 7044.09 km

Apoapsis: 715.739 km

Periapsis: 616.172 km

RAAN: 301.7169 deg

Eccentricy: 0.0070674

Argument of periapsis: 349.4853 deg

Mean anomaly: 10.4868 deg

Mean motion: 14.68471042 rev/day

Mean motion (dot): 0.00028275 rev/day2

B* drag term: 0.0046915976 1/REarth

Two-line elements (TLE)

Creation date: Sept. 2, 2025, 11:42 p.m.

Reference frame: TEME

Reference center: EARTH

Epoch: Sept. 2, 2025, 9:07 a.m. UTC

TLE line 0: 0 CZ-6A DEB

TLE line 1: 1 56588U 22151ADL 25245.37994126 .00028275 00000-0 46916-2 0 9994

TLE line 2: 2 56588 98.6524 301.7169 0070674 349.4853 10.4868 14.68471042135110

Live tracking on map

Real-time ground track for satellite CZ-6A DEB.

In-orbit conjunctions

A list of the most updated potential collisions computed for object CZ-6A DEB.

Target Orbit TCA Probability of collision Miss distance Type
CZ-6A DEB LEO 2025-02-24 01:27:14 0.0001197991 186.0 (m) DEBRIS
CZ-6A DEB LEO 2025-01-10 20:56:47 0.0001072815 337.0 (m) DEBRIS

Associated space launch

Chinese satellite reported for atmospheric/ocean/environmental/spatial parameter research purposes, details TBD.

CZ-6A DEB was lifted into orbit during the mission ‘Long March 6A | Yunhai 3’, on board a Long March 6A space rocket.

The launch took place on Nov. 11, 2022, 10:52 p.m. from Launch Complex 9A.

For more information about the launch, click the button.

Launch to space Long March 6A | Yunhai 3
Long March 6A | Yunhai 3

Agency: N/A

Status: Launch Successful

Launch date: Nov. 11, 2022, 10:52 p.m. UTC

Rocket: Long March 6A

Launch pad: Launch Complex 9A

Location: Taiyuan Satellite Launch Center, People's Republic of China

...

Latest news about this satellite

There are no fresh news available about this satellite. Check back as we update our databases every day.


Newsletter sign-up

Weekly statistics, charts and insights to help you stay on top of the space industry.